Home > Time Zones > World Clock > Weather > India > Moga > Past weeks

Flag for India Weather past 2 weeks in Moga, Punjab, India

Now
86 °F

More clouds than sun.


Feels Like: 99 °F
Forecast: 83 / 99 °F
Wind: 8 mph from East

Location: Amritsar Airport

Current Time: Jul 24, 2014 at 5:20:51 PM

Latest Report: Jul 24, 2014 at 4:30 PM


Visibility: 4 mi

Pressure: 29.53 "Hg

Humidity: 79%

Dew point: 79 °F

Location of MogaLocation

Historic Weather in Moga — Graph

°F

Moga temperature yesterday

Maximum temperature yesterday: 95 °F (at 1:30 PM)
Minimum temperature yesterday: 82 °F (at 8:30 PM)
Average temperature yesterday: 87 °F

Past Weeks' High & Low Weather Summary

 TemperatureHumidityPressure
High104 °F (Jul 10, 4:30 PM)100% (Jul 17, 10:30 PM)29.56 "Hg (Jul 17, 10:30 PM)
Low79 °F (Jul 17, 3:00 PM)31% (Jul 11, 4:00 PM)29.36 "Hg (Jul 15, 5:00 PM)
Average90 °F71%29.47 "Hg
* Reported Jul 9 6:30 PM — Jul 24 3:30 PM, Moga, Weather by CustomWeather, © 2014

Note: Actual official high and low records may vary slightly from our data, if they occured in-between our weather recording intervals... More about our weather records

Advertising

Moga weather history for previous 24 hours

 ConditionsComfort  
Time TempWeatherWind HumidityBarometerVisibility
3:30 PM
Jul 24
86 °FFog.8 mph75%29.53 "Hg3 mi
3:00 PM86 °FFog.8 mph75%29.53 "Hg3 mi
2:30 PM88 °FFog.7 mph79%29.53 "Hg3 mi
2:00 PM88 °FFog.8 mph79%29.56 "Hg3 mi
1:30 PM86 °FFog.8 mph79%29.56 "Hg3 mi
1:00 PM84 °FFog.9 mph84%29.56 "Hg3 mi
8:00 AM82 °FFog.8 mph89%29.53 "Hg2 mi
7:30 AM82 °FFog.8 mph89%29.56 "Hg2 mi
7:00 AM82 °FFog.6 mph89%29.53 "Hg1 mi
6:30 AM81 °FFog.7 mph94%29.50 "Hg1 mi
6:00 AM81 °FFog.6 mph100%29.53 "Hg1 mi
5:30 AM82 °FFog.6 mph89%29.50 "Hg1 mi
5:00 AM82 °FFog.2 mph89%29.50 "Hg1 mi
4:30 AM82 °FFog.5 mph89%29.50 "Hg1 mi
4:00 AM82 °FFog.1 mph89%29.50 "Hg1 mi
3:30 AM82 °FFog.No wind94%29.50 "Hg1 mi
2:30 AM82 °FFog.No wind94%29.50 "Hg1 mi
2:00 AM82 °FFog.No wind94%29.50 "Hg1 mi
1:30 AM82 °FFog.No wind94%29.50 "Hg1 mi
1:00 AM82 °FFog.No wind94%29.53 "Hg1 mi
12:30 AM82 °FFog.No wind94%29.53 "Hg1 mi
12:00 AM82 °FFog.No wind94%29.53 "Hg1 mi
11:30 PM
Jul 23
82 °FFog.No wind94%29.53 "Hg1 mi
11:00 PM82 °FFog.2 mph94%29.53 "Hg1 mi
10:30 PM82 °FFog.2 mph94%29.53 "Hg1 mi
10:00 PM82 °FFog.8 mph94%29.53 "Hg1 mi
9:30 PM82 °FFog.2 mph100%29.50 "Hg1 mi
9:00 PM82 °FFog.8 mph100%29.50 "Hg1 mi
8:30 PM82 °FFog.3 mph100%29.50 "Hg1 mi
8:00 PM84 °FDrizzle. More clouds than sun.No wind94%29.47 "Hg1 mi
Weather by CustomWeather, © 2014

See weather overviewHow to use our weather pages